User: anonymous   Login
Location: Ergnies
(50.0854°N, 2.0375°E)
Time: 00:56:17
(UTC+00:00)
Language:

YAOGAN 1 - Orbit

View from above orbital plane
View from above orbital plane
View from above satellite
View from above satellite

Ground track
Ground track

The orbit is defined by the following mean orbital elements,

1 29092U          26070.57029803 +.00000000 +00000-0 +12792-3 0 00008
2 29092  97.7554  93.7623 0001485  94.6849 265.4537 14.87589497    03
Epoch (UTC): 11 March 2026 13:41:13
Eccentricity: 0.0001485
inclination: 97.7554°
perigee height: 604 km
apogee height: 607 km
right ascension of ascending node: 93.7623°
argument of perigee: 94.6849°
revolutions per day: 14.87589497
mean anomaly at epoch: 265.4537°

The dashed part of the orbit path shows where the satellite is in the earth's shadow,  

DLR